Fairbanks, AK

4:41 PM AKST on December 06, 2019 (GMT -0900)
Fairbanks International

Weather History for PAFA - May, 2019

Change the Weather History Date:

Thursday, May 16, 2019

  Actual Average Record
Temperature  
Mean Temperature 62 °F 50 °F  
Max Temperature 72 °F 61 °F 82 °F (1993)
Min Temperature 52 °F 38 °F 22 °F (1937)
Degree Days  
Heating Degree Days 3 15  
Month to date heating degree days 249 299  
Since 1 July heating degree days 11511 13323  
Cooling Degree Days 0 0  
Month to date cooling degree days 0 0  
Year to date cooling degree days 0 0  
Growing Degree Days 12 (Base 50)    
Moisture  
Dew Point 27 °F    
Average Humidity 26    
Maximum Humidity 44    
Minimum Humidity 9    
Precipitation  
Precipitation 0.00 in 0.02 in 0.33 in (1978)
Month to date precipitation 0.22 0.27  
Year to date precipitation 2.70 1.83  
Snow  
Snow 0.00 in 0.00 in 1.40 in (1992)
Month to date snowfall T 0.7  
Since 1 July snowfall 57.5 64.8  
Snow Depth 0.00 in    
Sea Level Pressure  
Sea Level Pressure 29.53 in    
Wind  
Wind Speed 10 mph (NE)    
Max Wind Speed 21 mph    
Max Gust Speed 29 mph    
Visibility 10 miles    
Events      
T = Trace of Precipitation, MM = Missing Value Source: NWS Daily Summary

Daily Weather History Graph

Daily Weather History Graph

Search for Another Location

Airport or City:

Astronomy

May. 16, 2019 Rise Set
Actual Time 4:25 AM AKDT 11:12 PM AKDT
Civil Twilight 2:10 AM AKDT 1:15 AM AKDT
Nautical Twilight Sun does not rise Sun does not rise
Astronomical Twilight Sun does not rise Sun does not rise
Moon 7:37 PM AKDT (5/16) 5:11 AM AKDT (5/16)
Length of Visible Light 23h 05m
Length of Day
18h 47m
Waxing Gibbous, 95% of the Moon is Illuminated
May 16
Waxing Gibbous
May 18
Full
May 26
Last Quarter
Jun 3
New
Jun 9
First Quarter

Hourly Weather History & Observations

Time (AKDT) Temp. Dew Point Humidity Pressure Visibility Wind Dir Wind Speed Gust Speed Precip Events Conditions
12:53 AM 57.9 °F 27.0 °F 31% 29.64 in 10.0 mi North 9.2 mph - N/A   Mostly Cloudy
1:53 AM 57.0 °F 25.0 °F 29% 29.63 in 10.0 mi North 11.5 mph - N/A   Mostly Cloudy
2:53 AM 55.0 °F 24.1 °F 30% 29.63 in 10.0 mi North 12.7 mph - N/A   Mostly Cloudy
3:53 AM 53.1 °F 24.1 °F 32% 29.63 in 10.0 mi North 11.5 mph - N/A   Mostly Cloudy
4:53 AM 53.1 °F 24.1 °F 32% 29.62 in 10.0 mi North 11.5 mph - N/A   Mostly Cloudy
5:53 AM 52.0 °F 24.1 °F 34% 29.62 in 10.0 mi North 11.5 mph - N/A   Scattered Clouds
6:53 AM 54.0 °F 24.1 °F 31% 29.61 in 10.0 mi North 11.5 mph - N/A   Partly Cloudy
7:53 AM 57.0 °F 24.1 °F 28% 29.60 in 10.0 mi North 11.5 mph - N/A   Partly Cloudy
8:53 AM 60.1 °F 23.0 °F 24% 29.60 in 10.0 mi North 8.1 mph - N/A   Partly Cloudy
9:53 AM 62.1 °F 24.1 °F 23% 29.58 in 10.0 mi NNE 4.6 mph - N/A   Partly Cloudy
10:53 AM 64.9 °F 24.1 °F 21% 29.56 in 10.0 mi NNE 6.9 mph - N/A   Partly Cloudy
11:53 AM 66.0 °F 24.1 °F 20% 29.54 in 10.0 mi Calm Calm - N/A   Partly Cloudy
12:53 PM 68.0 °F 25.0 °F 20% 29.52 in 10.0 mi East 4.6 mph - N/A   Partly Cloudy
1:53 PM 70.0 °F 25.0 °F 18% 29.50 in 10.0 mi North 4.6 mph 18.4 mph N/A   Partly Cloudy
2:53 PM 71.1 °F 26.1 °F 19% 29.48 in 10.0 mi ENE 9.2 mph 18.4 mph N/A   Partly Cloudy
3:53 PM 70.0 °F 25.0 °F 18% 29.47 in 10.0 mi East 12.7 mph - N/A   Partly Cloudy
4:53 PM 71.1 °F 27.0 °F 19% 29.46 in 10.0 mi NE 12.7 mph 26.5 mph N/A   Scattered Clouds
5:53 PM 70.0 °F 30.9 °F 24% 29.45 in 10.0 mi East 18.4 mph 27.6 mph N/A   Mostly Cloudy
6:00 PM 69.1 °F 30.9 °F 24% 29.43 in 10.0 mi East 20.7 mph 25.3 mph N/A   Mostly Cloudy
6:53 PM 69.1 °F 30.0 °F 23% 29.45 in 10.0 mi East 16.1 mph 21.9 mph N/A   Mostly Cloudy
7:53 PM 66.0 °F 32.0 °F 28% 29.46 in 10.0 mi ESE 4.6 mph - N/A   Mostly Cloudy
8:53 PM 63.0 °F 33.1 °F 33% 29.47 in 8.0 mi East 19.6 mph 28.8 mph N/A   Mostly Cloudy
9:53 PM 60.1 °F 35.1 °F 39% 29.47 in 10.0 mi ENE 6.9 mph - N/A   Mostly Cloudy
10:53 PM 57.9 °F 35.1 °F 42% 29.46 in 10.0 mi NE 5.8 mph - N/A   Mostly Cloudy
11:53 PM 57.0 °F 35.1 °F 44% 29.47 in 10.0 mi East 3.5 mph - N/A   Mostly Cloudy